Location: Buch
(49.7331°N, 12.1098°E)
Time: 08:55:53
(UTC+00:00)

Cosmos 1242 Rocket - Pass Details

Date: 12 May 2021
Orbit: 445 x 484 km, 81.2° (Epoch: 13 June)

Event Time Altitude Azimuth Distance (km) Brightness Sun altitude
Rises 19:54:27 0° 204° (SSW) 2,508 6.0 -9.6°
Reaches altitude 10° 19:56:36 10° 210° (SSW) 1,629 5.1 -9.9°
Maximum altitude 20:00:03 47° 285° (WNW) 628 3.6 -10.3°
Drops below altitude 10° 20:03:29 10° 1° (N) 1,621 5.9 -10.7°
Sets 20:05:37 0° 8° (N) 2,494 6.8 -10.9°
